HULIANGWANG DIGUI-08

导读

HULIANWANG DIGUI-08即中国互联网低轨08号卫星,于2024年12月16日由中国发射,是中国低轨卫星互联网组网建设的重要组成部分。该卫星依托低轨轨道优势,可提供全球覆盖、低延迟的高速互联网接入服务,补齐偏远地区网络覆盖短板,助力天地一体化信息网络构建,推动卫星互联网产业规模化发展,为全球互联互通提供中国方案。

Basic Information
目录编号:
62330
目录名称:
HULIANWANG DIGUI-08
国际标识:
2024-240H
轨道中心:
EARTH
卫星名称:
HULIANWANG DIGUI-08
卫星全名:
HULIANGWANG DIGUI-08
卫星状态:
在轨 (已飞行544 天)
发射日期:
2024-12-16 UTC
国别 :
中国 (CN)
星等 :
--
Orbit Information
数据来源 国际轨道数据 AOE轨道数据
星历时间 2026-06-12T14:49:05+0800
17小时前
查看轨道信息
2026-06-11T17:00:00+0800
1天前
查看轨道信息
半长轴 7546.061km 7546.059km
偏心率 0.0001639 0.000147
轨道倾角 86.503° 86.503°
近地点辐角 106.764° 103.375°
升交点赤经 345.055° 345.362°
平近点角 253.367° 244.795°
近地点 1166.687km 1166.812km
远地点 1169.161km 1169.032km
周期 108.728分钟 108.728分钟
每日圈数 13.244097 13.244101
Detailed Information
使用方式:
暂无
2D Orbit Map
3D Orbit Map
Orbit Altitude Analysis Chart
Orbit Inclination Analysis Chart
Orbit Comprehensive Analysis Chart
View Comprehensive Chart